Tracking 19176 objects as of 27-May-2018
HD Live streaming from Space Station
objects crossing your sky now

FENGYUN 1C DEB

Track FENGYUN 1C DEB now!
10-day predictions


NORAD ID: 30436
Int'l Code: 1999-025AEX
Perigee: 799.6 km
Apogee: 993.9 km
Inclination: 98.4 °
Period: 102.8 minutes
Semi major axis: 7267 km
RCS: 0.026 m2 (small)
Launch date: May 10, 1999
Source: People's Republic of China (PRC)
Launch site: Taiyaun Space Center, China (TSC)

Note: This is SATELLITE DEBRIS
aabbcc
Your satellite tracking list
Your tracking list is empty




NASA's NSSDC Master Catalog

Two Line Element Set (TLE):
1 30436U 99025AEX 18146.63977760 +.00000081 +00000-0 +73357-4 0  9994
2 30436 098.4210 193.2586 0133620 054.7420 071.2846 14.01210459576725
Source of the keplerian elements: AFSPC